Location: Ar Ranvel
(48.3000°N, 4.8833°W)
Time: 00:57:59
(UTC+00:00)

Genesis I - Visible Passes

Search period start: 24 October 2021 00:00
Search period end: 03 November 2021 00:00
Orbit: 471 x 547 km, 64.5° (Epoch: 23 October)

Date Brightness Start Highest point End Pass type
(mag) Time Alt. Az. Time Alt. Az. Time Alt. Az.
31 Oct 3.5 06:25:23 10° SSW 06:29:17 74° SE 06:33:19 10° NE visible
01 Nov 3.5 06:07:25 10° SSW 06:11:20 72° SE 06:15:22 10° NE visible
02 Nov 3.5 05:49:29 10° SSW 05:53:22 70° SE 05:57:23 10° NE visible
